Location: Chillicothe
(39.7950°N, 93.5520°W)
Time: 19:46:02
(UTC-06:00)

Vanguard 3 - Pass Details

Date: 27 October 2019
Orbit: 508 x 3263 km, 33.3° (Epoch: 12 November)

Event Time Altitude Azimuth Distance (km) Brightness Sun altitude
Rises 22:27:06 0° 240° (WSW) 4,267 11.1 -47.4°
Enters shadow 22:29:32 - 236° (SW) 3,363 10.5 -47.8°
Reaches altitude 10° 22:30:54 10° 232° (SW) 2,854 - -48.0°
Maximum altitude 22:36:27 31° 172° (S) 1,287 - -49.0°
Drops below altitude 10° 22:40:18 10° 109° (ESE) 1,938 - -49.6°
Sets 22:42:24 0° 97° (E) 2,708 - -49.9°
